Location: Bonningues
(50.7927°N, 2.0150°E)
Time: 08:24:30
(UTC+00:00)

Okean 1-7 - Pass Details

Date: 08 August 2020
Orbit: 590 x 619 km, 82.5° (Epoch: 26 September)

Event Time Altitude Azimuth Distance (km) Brightness Sun altitude
Rises 20:59:54 0° 356° (N) 2,888 7.3 -12.9°
Reaches altitude 10° 21:02:20 10° 7° (N) 1,973 6.2 -13.2°
Maximum altitude 21:06:16 32° 71° (ENE) 1,055 4.0 -13.6°
Enters shadow 21:08:22 21° 118° (ESE) 1,380 4.3 -13.8°
